Regional Weather Roundup
Issued by NWS

Home | Current Version | Previous Version | Graphics & Text | Print | Product List | Glossary On
Versions: 1 2 3 4 5 6 7 8 9 10 11 12 13 14 15 16 17 18 19 20 21 22 23 24 25 26 27 28 29 30 31 32 33 34 35 36 37 38 39 40 41 42 43 44 45 46 47 48 49 50
000
ASUS45 KPSR 221610
RWRAZ

ARIZONA HOURLY REGIONAL WEATHER ROUNDUP
NATIONAL WEATHER SERVICE PHOENIX AZ
900 AM MST WED FEB 22 2017

NOTE: FAIR INDICATES FEW OR NO CLOUDS BELOW 12,000 FEET WITH NO
SIGNIFICANT WEATHER AND/OR OBSTRUCTIONS TO VISIBILITY.

AZZ001>003-036-221700-
NORTHWEST ARIZONA

CITY           SKY/WX    TMP DP  RH WIND       PRES   REMARKS
BULLHEAD CITY  MOSUNNY   54  52  94 SW3       30.00R
KINGMAN        PTSUNNY   48  42  80 E3        30.02F
$$

AZZ004>008-015-016-018-221700-
NORTH CENTRAL ARIZONA

CITY           SKY/WX    TMP DP  RH WIND       PRES   REMARKS
GRAND CANYON   CLOUDY    42  40  92 S10       30.10F
WILLIAMS       CLOUDY    45  30  57 S16       30.12F
PRESCOTT       CLOUDY    50  44  80 SE8       30.12S
FLAGSTAFF      CLOUDY    43  39  86 SW12      30.15F
PAYSON         CLOUDY    50  41  71 CALM      30.17S
PAGE           PTSUNNY   48  37  65 S3        29.98S
$$

AZZ009>014-017-221700-
NORTHEAST ARIZONA

CITY           SKY/WX    TMP DP  RH WIND       PRES   REMARKS
WINSLOW        PTSUNNY   46  40  79 SE7       30.11S
SAINT JOHNS    CLOUDY    45  35  68 NW5       30.13S
SHOW LOW       PTSUNNY   48  32  53 S10       30.17F
$$

AZZ023-221700-
GREATER PHOENIX AREA

CITY           SKY/WX    TMP DP  RH WIND       PRES   REMARKS
PHOENIX        PTSUNNY   61  52  72 E7        30.03S
BUCKEYE        PTSUNNY   55  55 100 NW3       30.05R
GLENDALE       PTSUNNY   59  59 100 CALM      30.06R
LUKE AFB       PTSUNNY   58  57  96 N5        30.04R
DEER VALLEY    PTSUNNY   60  53  77 N5        30.04R
SCOTTSDALE     PTSUNNY   59  51  75 CALM      30.08R
MESA-FALCON      N/A    N/A N/A N/A N7        30.02S
MESA-GATEWAY   MOSUNNY   57  52  82 SE5       30.05F
CHANDLER       SUNNY     59  52  77 CALM      30.04F
$$

AZZ027-028-221700-
SOUTHWEST MARICOPA COUNTY AND PINAL COUNTY

CITY           SKY/WX    TMP DP  RH WIND       PRES   REMARKS
CASA GRANDE    NOT AVBL
GILA BEND      FAIR      65  52  62 S6        30.02F
$$

AZZ503-504-507>509-221700-
SOUTHEAST ARIZONA

CITY           SKY/WX    TMP DP  RH WIND       PRES   REMARKS
TUCSON         SUNNY     58  43  57 SE12      30.09S
DAVIS-MONTHAN  SUNNY     59  44  56 SE7       30.08F
RYAN FIELD     SUNNY     55  45  67 E8        30.08F
NOGALES        SUNNY     53  41  63 S3        30.13S
SIERRA VISTA   SUNNY     61  42  49 SE5       30.16S
DOUGLAS        SUNNY     52  38  58 CALM      30.16R
SAFFORD        SUNNY     56  42  59 S9        30.09S
$$

AZZ020-021-025-026-031-221700-
SOUTHWEST ARIZONA

CITY           SKY/WX    TMP DP  RH WIND       PRES   REMARKS
YUMA           PTSUNNY   66  47  50 NW3       30.01R
$$

CAZ031-033-041-043-047-048-061-221700-
SOUTHERN CALIFORNIA

CITY           SKY/WX    TMP DP  RH WIND       PRES   REMARKS
DOWNTOWN L.A.  SUNNY     54  50  86 CALM      30.14R
L.A. AIRPORT   MOSUNNY   56  50  80 W6        30.14R
SAN DIEGO      PTSUNNY   59  53  80 NW9       30.17S
BURBANK        SUNNY     51  45  79 CALM      30.13R
ONTARIO        PTSUNNY   52  49  89 W6        30.13S
RIVERSIDE      PTSUNNY   53  51  93 W3        30.14R
PALM SPRINGS   SUNNY     59  51  75 CALM      30.01S
EL CENTRO NAS  PTSUNNY   61  44  53 W7        30.01S
IMPERIAL       PTSUNNY   59  45  59 W6        29.99S
BLYTHE         PTSUNNY   59  56  89 W6        30.01R
NEEDLES        MOSUNNY   60  52  74 S3        29.99F
$$

NVZ020-UTZ003-221700-
SOUTHERN NEVADA-UTAH

CITY           SKY/WX    TMP DP  RH WIND       PRES   REMARKS
LAS VEGAS      MOSUNNY   57  30  35 S17G25    29.92F
SALT LAKE CITY CLOUDY    37  34  89 SE7       29.98F WCI  32
$$

NMZ009-TXZ055-221700-
NEW MEXICO-WEST TEXAS

CITY           SKY/WX    TMP DP  RH WIND       PRES   REMARKS
ALBUQUERQUE    CLOUDY    51  36  56 CALM      30.14F
EL PASO        MOSUNNY   59  34  39 S9        30.11S
$$


........................KEY........................
SKY/WX - SKY CONDITION/WEATHER
TMP    - TEMPERATURE IN FAHRENHEIT
DP     - DEW POINT IN FAHRENHEIT
RH     - RELATIVE HUMIDITY IN PERCENT
WIND   - DIRECTION AND SPEED IN MILES PER HOUR (MPH)
VRB    - VARIABLE WIND DIRECTION
PRES   - MEAN SEA LEVEL PRESSURE IN INCHES OF MERCURY
         F - FALLING PRESSURE   R - RISING PRESSURE
         S - STEADY PRESSURE
VSB    - VISIBILITY IN MILES
HX     - HEAT INDEX IN FAHRENHEIT
WCI    - WIND CHILL INDEX IN FAHRENHEIT
TC     - TEMPERATURE IN CELSIUS WHICH IS ALSO KNOWN AS
         TEMPERATURE IN CENTIGRADE
AFB    - AIR FORCE BASE
         LUKE AFB IS LUKE AIR FORCE BASE
         DAVIS-MONTHAN IS DAVIS-MONTHAN AIR FORCE BASE
NAS    - NAVAL AIR STATION
         EL CENTRO NAS IS EL CENTRO NAVAL AIR STATION
N/A    - NOT AVAILABLE




USA.gov is the U.S. government's official web portal to all federal, state and local government web resources and services.